Location: Newark
(25.0000°N, 73.5000°E)
Time: 12:39:07
(UTC+00:00)

A-11 Canister half - All Passes

Search period start: 07 March 2021 00:00
Search period end: 17 March 2021 00:00
Orbit: 1516 x 1684 km, 47.2° (Epoch: 06 March)

Date Brightness Start Highest point End Pass type
(mag) Time Alt. Az. Time Alt. Az. Time Alt. Az.
07 Mar - 01:01:52 10° S 01:10:20 32° SE 01:18:53 10° ENE visible
07 Mar - 03:04:48 10° SW 03:14:54 71° NW 03:25:03 10° NE daylight
07 Mar - 05:13:21 10° WNW 05:21:31 27° NNW 05:29:38 10° NNE daylight
07 Mar - 07:23:24 10° NW 07:30:12 20° N 07:36:54 10° NE daylight
07 Mar - 09:29:09 10° NW 09:38:10 38° NNE 09:46:52 10° E daylight
07 Mar - 11:33:57 10° NW 11:43:39 70° SW 11:52:59 10° SE daylight
07 Mar - 13:43:44 10° W 13:47:29 13° WSW 13:51:13 10° SSW visible
08 Mar - 00:39:17 10° S 00:47:28 29° SE 00:55:42 10° ENE visible
08 Mar - 02:41:49 10° SW 02:51:55 75° NW 03:02:07 10° NE daylight
08 Mar - 04:50:07 10° WNW 04:58:24 28° NNW 05:06:42 10° NNE daylight
08 Mar - 07:00:16 10° NW 07:07:03 19° N 07:13:43 10° NE daylight
08 Mar - 09:06:13 10° NW 09:15:08 36° NNE 09:23:45 10° E daylight
08 Mar - 11:10:59 10° NW 11:20:45 75° SW 11:30:09 10° SE daylight
08 Mar - 13:19:57 10° W 13:24:38 15° WSW 13:29:17 10° SSW daylight
09 Mar - 00:16:43 10° S 00:24:34 27° SE 00:32:29 10° ENE visible
09 Mar - 02:18:50 10° SW 02:28:57 80° NW 02:39:10 10° NE daylight
09 Mar - 04:26:51 10° W 04:35:19 29° NNW 04:43:46 10° NNE daylight
09 Mar - 06:37:07 10° NW 06:43:53 19° N 06:50:33 10° NE daylight
09 Mar - 08:43:17 10° NW 08:52:05 34° NNE 09:00:37 10° E daylight
09 Mar - 10:47:59 10° NW 10:57:50 80° SW 11:07:18 10° SE daylight
09 Mar - 12:56:21 10° W 13:01:47 17° WSW 13:07:09 10° SSW daylight
09 Mar - 23:54:13 10° S 00:01:41 24° SE 00:09:14 10° ENE visible
10 Mar - 01:55:54 10° SW 02:05:59 85° NW 02:16:14 10° NE daylight
10 Mar - 04:03:38 10° W 04:12:13 30° NNW 04:20:50 10° NNE daylight
10 Mar - 06:13:57 10° NW 06:20:44 19° N 06:27:24 10° NE daylight
10 Mar - 08:20:20 10° NW 08:29:02 32° NNE 08:37:28 10° E daylight
10 Mar - 10:25:01 10° NW 10:34:56 86° SW 10:44:26 10° SE daylight
10 Mar - 12:32:52 10° W 12:38:56 19° SW 12:44:54 10° SSW daylight
10 Mar - 23:31:46 10° S 23:38:49 22° SE 23:45:55 10° E visible
11 Mar - 01:32:57 10° SW 01:43:02 89° NW 01:53:16 10° NE daylight
11 Mar - 03:40:24 10° W 03:49:09 32° NNW 03:57:54 10° NE daylight
11 Mar - 05:50:47 10° NW 05:57:34 19° N 06:04:16 10° NE daylight
11 Mar - 07:57:22 10° NW 08:05:58 31° NNE 08:14:18 10° E daylight
11 Mar - 10:02:03 10° NW 10:12:00 89° NE 10:21:33 10° SE daylight
11 Mar - 12:09:29 10° W 12:16:05 21° SW 12:22:34 10° SSW daylight
11 Mar - 23:09:22 10° SSE 23:15:56 20° SE 23:22:33 10° E visible
12 Mar - 01:10:03 10° SW 01:20:05 86° SE 01:30:19 10° NE daylight
12 Mar - 03:17:12 10° W 03:26:04 33° NNW 03:34:58 10° NE daylight
12 Mar - 05:27:35 10° NW 05:34:23 19° N 05:41:08 10° NE daylight
12 Mar - 07:34:25 10° NNW 07:42:54 30° NNE 07:51:08 10° E daylight
12 Mar - 09:39:05 10° NW 09:49:04 84° NE 09:58:40 10° SE daylight
12 Mar - 11:46:10 10° WNW 11:53:13 23° SW 12:00:09 10° S daylight
12 Mar - 22:47:03 10° SSE 22:53:03 18° ESE 22:59:06 10° E visible
13 Mar - 00:47:08 10° SW 00:57:08 81° SE 01:07:20 10° NE visible
13 Mar - 02:54:01 10° W 03:03:00 35° NNW 03:12:02 10° NE daylight
13 Mar - 05:04:23 10° NW 05:11:13 20° N 05:18:01 10° NE daylight
13 Mar - 07:11:27 10° NNW 07:19:49 28° NNE 07:27:56 10° E daylight
13 Mar - 09:16:08 10° NW 09:26:09 79° NE 09:35:45 10° SE daylight
13 Mar - 11:22:54 10° WNW 11:30:22 25° SW 11:37:41 10° S daylight
13 Mar - 22:24:51 10° SSE 22:30:11 16° ESE 22:35:33 10° E visible
14 Mar - 00:24:16 10° SW 00:34:12 76° SE 00:44:21 10° NE visible
14 Mar - 02:30:50 10° W 02:39:56 37° NNW 02:49:07 10° NE daylight
14 Mar - 04:41:09 10° NW 04:48:04 20° N 04:54:55 10° NE daylight
14 Mar - 06:48:29 10° NNW 06:56:43 27° NNE 07:04:45 10° ENE daylight
14 Mar - 08:53:10 10° NW 09:03:12 75° NE 09:12:48 10° SE daylight
14 Mar - 10:59:40 10° WNW 11:07:31 28° SW 11:15:10 10° S daylight
14 Mar - 22:02:48 10° SSE 22:07:18 14° ESE 22:11:51 10° E visible
15 Mar - 00:01:25 10° SW 00:11:17 71° SE 00:21:22 10° NE visible
15 Mar - 02:07:40 10° W 02:16:53 39° NNW 02:26:11 10° NE daylight
15 Mar - 04:17:55 10° NW 04:24:53 20° N 04:31:50 10° NE daylight
15 Mar - 06:25:31 10° NNW 06:33:38 26° NNE 06:41:32 10° ENE daylight
15 Mar - 08:30:14 10° NW 08:40:14 70° NE 08:49:51 10° SE daylight
15 Mar - 10:36:28 10° WNW 10:44:38 31° SW 10:52:36 10° S daylight
15 Mar - 21:41:01 10° SE 21:44:26 12° ESE 21:47:53 10° ESE visible
15 Mar - 23:38:35 10° SSW 23:48:21 66° SE 23:58:21 10° NE visible
16 Mar - 01:44:32 10° W 01:53:49 41° NNW 02:03:15 10° NE daylight
16 Mar - 03:54:41 10° NW 04:01:43 20° N 04:08:45 10° NE daylight
16 Mar - 06:02:31 10° NNW 06:10:30 25° NNE 06:18:20 10° ENE daylight
16 Mar - 08:07:17 10° NW 08:17:16 66° NE 08:26:53 10° ESE daylight
16 Mar - 10:13:18 10° WNW 10:21:46 33° SW 10:30:01 10° S daylight
16 Mar - 21:19:58 10° SE 21:21:34 10° ESE 21:23:10 10° ESE visible
16 Mar - 23:15:46 10° SSW 23:25:26 61° SE 23:35:21 10° NE visible
